星链-2500 (STARLINK-2500 )

导读

STARLINK-2500是美国SpaceX公司星链(Starlink)项目的卫星,于2021年5月9日发射升空,属于星链互联网卫星星座的组成部分,主要用于为全球提供低延迟、高速率的宽带互联网服务,尤其覆盖偏远地区等网络基础设施薄弱区域,助力全球互联,目前已在星链星座中承担相关通信服务任务。

Basic Information
目录编号:
48485
目录名称:
STARLINK-2500
国际标识:
2021-040BK
轨道中心:
EARTH
卫星名称:
星链-2500
卫星全名:
星链-2500 (STARLINK-2500 )
卫星状态:
在轨 (已飞行1866 天)
发射日期:
2021-05-09 UTC
国别 :
美国 (US)
星等 :
--
Orbit Information
数据来源 国际轨道数据 AOE轨道数据
星历时间 2026-06-18T14:34:07+0800
10小时前
查看轨道信息
2026-06-16T00:00:00+0800
3天前
查看轨道信息
半长轴 6848.901km 6848.883km
偏心率 0.0002288 0.0001638
轨道倾角 53.159° 53.162°
近地点辐角 62.317° 88.929°
升交点赤经 85.800° 97.942°
平近点角 297.806° 287.663°
近地点 469.196km 469.624km
远地点 472.332km 471.868km
周期 94.014分钟 94.013分钟
每日圈数 15.316921 15.316983
Detailed Information
固有亮度:
5
最大亮度:
2.5
卫星平台:
Starlink V1.0
覆盖范围:
全球
运营商:
太空探索技术公司
运营商所在国:
美国
制造商(研发单位):
太空探索技术公司
制造商所在国:
美国
使用方式:
暂无
Satellite Introduction
星链(Starlink)计划是由太空探索技术公司(SpaceX)提出的一个巨型低轨卫星互联网星座项目,计划在2019年至2024年间在太空搭建由约1.2万颗卫星组成的“星链”网络,其中1584颗将部署在地球上空550千米处的近地轨道,并从2020年开始工作。该卫星仍在工作。
2D Orbit Map
3D Orbit Map
Orbit Altitude Analysis Chart
Orbit Inclination Analysis Chart
Orbit Comprehensive Analysis Chart
View Comprehensive Chart